Temp
-6 -6 -6 -6 -6 -6 -6 -7 -7 -7 -7 -7 -7 -6 -6 -6 -6 -6 -6 -5 -5 -6 -6 -6 -6 -7 -7 -8 -8 -8 -6 -5 -5 -6 -6 -6 -6 -6 -7 -7 -8 -9 -9 -10 -9
-6 -6 -6 -6 -6 -6 -6 -7 -7 -7 -7 -7 -6 -6 -6 -6 -6 -6 -5 -6 -6 -6 -6 -6 -7 -7 -7 -8 -8 -8 -7 -6 -7 -7 -6 -6 -7 -6 -8 -7 -8 -9 -9 -9 -9
-7 -6 -6 -6 -6 -7 -7 -7 -7 -7 -7 -7 -6 -6 -6 -6 -6 -6 -5 -5 -5 -5 -6 -6 -6 -7 -7 -8 -9 -9 -8 -9 -9 -9 -8 -7 -7 -8 -8 -8 -8 -10 -10 -10 -10
-7 -7 -6 -6 -7 -7 -7 -7 -7 -7 -7 -7 -6 -6 -6 -5 -6 -5 -5 -5 -6 -6 -7 -8 -8 -8 -9 -9 -11 -11 -11 -10 -10 -11 -10 -9 -8 -8 -9 -8 -10 -10 -10 -10 -10
-7 -7 -7 -7 -7 -7 -7 -7 -7 -7 -7 -7 -6 -6 -6 -6 -6 -6 -6 -6 -7 -7 -8 -10 -11 -12 -13 -13 -13 -13 -12 -12 -12 -12 -12 -11 -10 -8 -9 -9 -10 -10 -10 -10 -10
-7 -7 -7 -7 -7 -7 -7 -7 -7 -7 -7 -7 -6 -6 -6 -6 -6 -6 -7 -8 -8 -10 -12 -13 -14 -14 -14 -15 -15 -15 -15 -15 -14 -13 -13 -13 -11 -11 -10 -10 -10 -11 -11 -11 -11
-7 -7 -7 -7 -8 -7 -7 -8 -7 -7 -7 -7 -7 -7 -6 -6 -7 -7 -8 -8 -11 -15 -15 -15 -16 -16 -16 -16 -16 -16 -16 -15 -15 -15 -15 -14 -13 -12 -10 -11 -10 -11 -11 -11 -11
-8 -8 -8 -8 -8 -8 -8 -8 -7 -7 -7 -7 -7 -7 -7 -7 -7 -8 -9 -13 -14 -16 -16 -17 -17 -16 -16 -16 -16 -16 -16 -16 -16 -16 -16 -16 -14 -12 -11 -12 -10 -11 -12 -12 -12
-8 -8 -8 -8 -8 -8 -8 -8 -8 -8 -8 -7 -8 -7 -7 -7 -8 -9 -12 -16 -16 -16 -17 -16 -16 -16 -16 -16 -16 -17 -16 -16 -16 -16 -16 -17 -15 -14 -13 -13 -11 -11 -12 -12 -12
-8 -8 -8 -8 -8 -8 -8 -8 -8 -8 -8 -8 -8 -8 -7 -9 -10 -12 -15 -16 -17 -17 -16 -16 -16 -16 -17 -16 -16 -17 -18 -18 -17 -16 -17 -18 -16 -14 -14 -14 -12 -12 -12 -12 -12
-8 -8 -8 -8 -8 -8 -8 -8 -8 -8 -8 -8 -8 -7 -8 -11 -13 -17 -16 -16 -16 -16 -16 -16 -16 -16 -16 -17 -17 -18 -17 -17 -18 -18 -18 -17 -15 -15 -15 -15 -14 -12 -12 -12 -12
-8 -8 -8 -8 -9 -9 -9 -9 -8 -8 -9 -8 -7 -8 -10 -12 -14 -16 -17 -16 -16 -16 -16 -16 -16 -17 -16 -18 -18 -18 -18 -19 -18 -18 -20 -17 -15 -15 -15 -15 -14 -13 -12 -13 -12
-8 -9 -9 -9 -9 -9 -9 -9 -9 -9 -9 -8 -9 -10 -12 -14 -15 -18 -16 -16 -16 -16 -16 -17 -17 -17 -18 -18 -19 -18 -19 -19 -19 -19 -19 -18 -16 -17 -16 -16 -14 -13 -13 -13 -12
-9 -9 -9 -9 -9 -9 -10 -10 -9 -10 -9 -9 -10 -11 -13 -14 -16 -18 -17 -16 -16 -16 -16 -17 -17 -17 -18 -18 -18 -18 -19 -19 -20 -20 -19 -19 -18 -16 -16 -16 -15 -14 -13 -13 -13
-9 -9 -9 -9 -9 -10 -10 -9 -10 -9 -9 -10 -11 -13 -14 -14 -15 -16 -16 -16 -16 -16 -16 -17 -17 -17 -18 -17 -18 -18 -19 -19 -19 -20 -19 -18 -17 -17 -16 -15 -15 -14 -14 -13 -13
-10 -10 -9 -9 -10 -10 -10 -10 -11 -9 -10 -11 -12 -13 -14 -17 -17 -17 -15 -15 -15 -15 -16 -17 -17 -17 -17 -17 -18 -18 -18 -18 -19 -19 -18 -18 -18 -16 -16 -14 -14 -14 -13 -12 -14
-10 -10 -10 -10 -10 -10 -10 -11 -10 -10 -11 -11 -11 -13 -14 -16 -16 -16 -16 -14 -15 -15 -15 -16 -17 -17 -17 -17 -17 -17 -17 -18 -18 -18 -18 -18 -17 -15 -15 -15 -13 -13 -13 -13 -14
-11 -11 -10 -11 -10 -10 -11 -11 -10 -11 -11 -12 -12 -12 -15 -15 -16 -16 -15 -15 -15 -15 -15 -16 -17 -16 -16 -17 -17 -17 -17 -17 -17 -17 -18 -18 -15 -14 -15 -15 -15 -15 -13 -12 -12
-11 -11 -11 -10 -10 -11 -11 -11 -11 -11 -11 -11 -11 -11 -14 -15 -16 -16 -15 -15 -15 -15 -15 -15 -17 -16 -17 -17 -17 -17 -17 -16 -16 -16 -16 -15 -15 -15 -16 -15 -14 -15 -15 -14 -13
-11 -11 -11 -11 -11 -11 -11 -11 -12 -12 -12 -12 -12 -12 -12 -14 -16 -16 -15 -15 -15 -15 -15 -15 -16 -16 -16 -16 -16 -16 -17 -16 -16 -16 -15 -15 -16 -16 -16 -16 -14 -14 -14 -14 -13
-11 -12 -12 -11 -11 -11 -11 -11 -12 -12 -12 -12 -12 -12 -13 -14 -16 -16 -15 -15 -15 -15 -16 -15 -16 -17 -16 -16 -17 -16 -17 -16 -16 -15 -15 -15 -15 -16 -16 -15 -14 -13 -13 -12 -12
-12 -12 -11 -12 -12 -12 -11 -11 -12 -12 -12 -12 -12 -12 -12 -14 -15 -15 -15 -14 -15 -15 -15 -15 -15 -16 -16 -16 -16 -15 -16 -16 -16 -15 -15 -15 -15 -15 -15 -15 -14 -14 -13 -13 -13
-12 -12 -11 -11 -11 -12 -12 -13 -13 -12 -12 -12 -12 -13 -13 -14 -15 -15 -15 -15 -15 -15 -15 -15 -15 -15 -15 -16 -17 -16 -16 -16 -16 -15 -15 -14 -14 -15 -15 -14 -14 -14 -14 -14 -12
-11 -11 -12 -12 -12 -12 -13 -13 -12 -12 -13 -13 -13 -13 -13 -15 -15 -15 -15 -15 -15 -15 -15 -15 -15 -16 -15 -16 -16 -15 -15 -16 -15 -16 -15 -14 -14 -15 -14 -14 -15 -15 -14 -14 -14
-12 -12 -12 -12 -13 -13 -13 -13 -13 -13 -13 -13 -13 -13 -13 -14 -16 -15 -15 -15 -15 -15 -15 -15 -15 -15 -15 -16 -15 -14 -15 -15 -15 -15 -15 -14 -15 -14 -14 -14 -14 -15 -15 -14 -14
-12 -12 -13 -13 -13 -13 -13 -13 -13 -14 -13 -13 -13 -13 -13 -14 -15 -15 -15 -15 -15 -15 -15 -15 -16 -15 -15 -16 -15 -16 -15 -15 -15 -14 -15 -14 -14 -14 -13 -13 -14 -14 -14 -14 -13
-14 -13 -13 -14 -14 -13 -14 -14 -14 -13 -14 -13 -13 -13 -13 -14 -15 -15 -15 -15 -15 -15 -15 -16 -15 -15 -15 -15 -16 -16 -16 -14 -14 -14 -15 -15 -14 -14 -12 -14 -13 -14 -14 -13 -13
Height
5858 5856 5854 5851 5849 5846 5842 5839 5837 5835 5833 5831 5827 5824 5821 5818 5815 5813 5808 5806 5803 5799 5796 5794 5792 5789 5787 5788 5786 5785 5782 5790 5800 5801 5806 5818 5823 5828 5835 5839 5849 5852 5845 5841 5845
5857 5854 5852 5849 5845 5842 5839 5837 5834 5831 5829 5825 5821 5817 5813 5810 5807 5803 5799 5795 5789 5785 5781 5777 5774 5772 5772 5771 5767 5766 5767 5778 5787 5786 5789 5801 5809 5817 5817 5826 5836 5836 5839 5835 5838
5855 5852 5849 5846 5843 5839 5837 5834 5831 5827 5824 5819 5815 5811 5807 5802 5800 5795 5790 5783 5778 5773 5767 5763 5758 5754 5752 5749 5750 5751 5749 5760 5764 5767 5772 5781 5792 5800 5802 5810 5824 5823 5831 5828 5831
5853 5850 5847 5843 5840 5838 5835 5831 5827 5823 5818 5814 5809 5804 5799 5795 5791 5782 5777 5770 5763 5755 5749 5743 5739 5736 5733 5732 5731 5729 5733 5738 5743 5747 5752 5759 5769 5777 5788 5802 5807 5812 5816 5822 5821
5851 5848 5844 5841 5838 5835 5831 5827 5822 5818 5813 5808 5802 5797 5792 5787 5780 5772 5764 5754 5746 5737 5729 5722 5719 5714 5714 5713 5714 5714 5718 5718 5723 5729 5732 5740 5748 5763 5772 5789 5794 5800 5803 5811 5815
5848 5845 5842 5838 5835 5831 5827 5822 5816 5811 5807 5801 5795 5789 5783 5777 5771 5760 5749 5740 5729 5718 5710 5705 5703 5701 5702 5701 5700 5702 5702 5704 5709 5713 5715 5721 5729 5742 5762 5775 5778 5786 5791 5795 5804
5846 5842 5839 5835 5832 5828 5823 5818 5812 5806 5800 5794 5789 5782 5775 5767 5755 5747 5737 5720 5707 5700 5696 5694 5692 5691 5691 5691 5691 5690 5690 5694 5698 5704 5706 5713 5714 5724 5751 5759 5764 5773 5781 5785 5785
5843 5839 5836 5832 5828 5824 5819 5814 5808 5801 5794 5789 5782 5774 5765 5755 5744 5731 5716 5703 5695 5692 5688 5687 5686 5685 5685 5684 5683 5682 5682 5684 5693 5690 5697 5700 5701 5719 5735 5741 5752 5759 5766 5775 5774
5841 5837 5833 5828 5824 5820 5814 5810 5804 5796 5789 5782 5774 5767 5756 5743 5731 5713 5697 5690 5687 5686 5685 5683 5681 5679 5678 5676 5675 5672 5673 5674 5678 5679 5685 5685 5690 5709 5717 5726 5742 5748 5755 5764 5767
5838 5834 5829 5825 5821 5815 5810 5804 5799 5793 5785 5775 5768 5760 5743 5724 5708 5698 5692 5687 5685 5684 5681 5678 5676 5673 5672 5670 5669 5666 5665 5664 5666 5670 5669 5670 5677 5694 5701 5711 5725 5736 5746 5753 5759
5836 5831 5826 5821 5817 5811 5805 5799 5796 5787 5778 5767 5756 5744 5728 5715 5703 5695 5688 5686 5684 5681 5679 5674 5671 5668 5664 5661 5660 5656 5656 5656 5658 5656 5655 5659 5668 5675 5687 5696 5712 5724 5736 5742 5749
5833 5827 5822 5817 5813 5807 5801 5794 5785 5778 5769 5761 5749 5732 5721 5707 5700 5689 5687 5683 5681 5679 5676 5673 5668 5662 5659 5656 5653 5648 5645 5646 5646 5645 5644 5651 5656 5667 5670 5681 5698 5715 5725 5733 5742
5830 5824 5819 5813 5809 5803 5796 5790 5781 5773 5766 5752 5737 5725 5715 5704 5693 5687 5683 5682 5678 5677 5673 5668 5664 5658 5652 5647 5643 5641 5636 5634 5632 5632 5633 5641 5644 5652 5660 5670 5686 5698 5717 5724 5737
5827 5822 5816 5810 5805 5798 5789 5782 5775 5767 5757 5749 5737 5725 5713 5703 5693 5685 5681 5681 5678 5673 5671 5666 5659 5653 5649 5642 5638 5635 5628 5627 5626 5623 5623 5634 5635 5644 5654 5663 5675 5688 5704 5716 5727
5823 5817 5812 5807 5800 5793 5789 5780 5772 5764 5756 5746 5732 5718 5708 5697 5690 5685 5680 5677 5675 5674 5667 5667 5655 5650 5648 5642 5636 5632 5628 5626 5620 5617 5618 5624 5631 5644 5652 5660 5668 5680 5692 5710 5721
5820 5814 5808 5802 5795 5791 5784 5776 5770 5762 5751 5743 5729 5719 5708 5694 5687 5682 5676 5676 5673 5672 5666 5660 5653 5650 5645 5640 5635 5631 5626 5622 5619 5614 5617 5627 5632 5640 5648 5659 5668 5679 5691 5702 5712
5816 5810 5804 5799 5793 5786 5779 5773 5767 5755 5750 5742 5731 5718 5704 5696 5689 5682 5677 5674 5672 5667 5665 5662 5651 5649 5646 5639 5635 5633 5626 5622 5621 5618 5621 5628 5629 5642 5649 5658 5670 5678 5688 5697 5706
5813 5808 5803 5797 5791 5782 5775 5772 5763 5756 5747 5739 5727 5717 5704 5695 5687 5680 5676 5674 5672 5668 5663 5659 5652 5649 5646 5640 5637 5629 5629 5624 5622 5622 5624 5626 5623 5637 5648 5655 5664 5675 5684 5696 5705
5810 5805 5800 5793 5785 5779 5773 5766 5758 5751 5743 5736 5728 5714 5703 5694 5683 5678 5674 5673 5671 5668 5663 5658 5654 5647 5646 5640 5637 5633 5631 5629 5625 5622 5624 5628 5629 5634 5645 5653 5660 5671 5680 5689 5698
5806 5800 5795 5789 5782 5777 5771 5763 5756 5750 5743 5733 5722 5712 5699 5690 5683 5677 5674 5673 5671 5667 5665 5658 5653 5649 5647 5643 5638 5637 5635 5632 5630 5626 5626 5631 5633 5635 5642 5650 5658 5666 5674 5683 5693
5802 5796 5791 5785 5780 5773 5768 5762 5755 5748 5740 5731 5722 5712 5700 5690 5681 5676 5675 5673 5671 5669 5665 5658 5655 5651 5647 5644 5640 5639 5636 5635 5634 5631 5627 5631 5637 5636 5644 5648 5654 5660 5670 5678 5687
5797 5793 5789 5783 5779 5771 5765 5757 5752 5745 5737 5729 5722 5712 5700 5689 5681 5676 5674 5672 5671 5670 5666 5659 5655 5653 5648 5646 5642 5639 5638 5637 5630 5625 5628 5629 5635 5638 5646 5649 5653 5658 5663 5672 5684
5793 5787 5781 5777 5772 5767 5760 5754 5746 5741 5735 5728 5720 5712 5701 5690 5683 5676 5673 5672 5671 5670 5668 5664 5656 5654 5652 5652 5646 5644 5642 5640 5636 5631 5631 5631 5635 5637 5640 5646 5649 5652 5662 5671 5683
5785 5781 5778 5771 5765 5760 5757 5753 5745 5738 5733 5727 5720 5712 5703 5692 5684 5679 5675 5673 5672 5671 5670 5667 5660 5655 5651 5652 5651 5648 5642 5641 5639 5638 5631 5627 5636 5638 5637 5642 5645 5651 5663 5674 5682
5777 5774 5769 5764 5763 5756 5752 5746 5741 5735 5731 5725 5719 5710 5703 5694 5686 5680 5677 5674 5673 5670 5668 5668 5665 5659 5655 5655 5654 5651 5640 5643 5642 5640 5633 5628 5628 5631 5638 5643 5644 5655 5661 5671 5679
5769 5766 5767 5759 5756 5751 5745 5741 5736 5733 5727 5723 5716 5710 5702 5693 5686 5682 5679 5676 5674 5671 5667 5666 5666 5663 5661 5658 5656 5651 5647 5646 5641 5644 5637 5631 5628 5636 5642 5644 5649 5656 5664 5670 5674
5762 5757 5754 5753 5749 5746 5741 5736 5731 5727 5725 5718 5714 5708 5701 5694 5686 5682 5679 5676 5674 5672 5669 5667 5665 5662 5661 5659 5657 5654 5652 5642 5645 5646 5646 5640 5643 5646 5646 5650 5654 5659 5667 5673 5682
Wind_Speed
17 16 17 21 23 25 23 21 22 23 24 25 28 30 32 34 36 37 39 41 41 43 46 47 47 48 48 44 46 49 57 55 50 51 51 45 46 49 47 44 45 35 33 38 43
18 18 20 23 26 25 22 21 22 25 28 31 33 34 35 37 38 40 42 44 48 51 53 55 56 55 54 50 53 56 59 56 52 54 56 51 52 52 54 54 50 37 39 43 47
20 20 23 25 25 23 21 24 25 28 32 34 34 35 36 38 40 41 46 51 53 57 62 63 64 63 63 59 56 57 65 58 58 60 62 61 57 58 59 58 55 39 41 45 52
21 21 22 24 24 26 26 27 29 32 32 33 35 36 38 40 44 50 52 57 61 66 65 65 63 61 61 59 56 59 59 60 58 57 63 67 67 64 63 62 51 41 47 52 57
24 22 22 24 25 29 29 29 31 32 34 37 37 39 42 44 50 53 59 64 67 71 68 61 56 54 49 48 47 51 51 54 57 56 56 64 68 68 67 65 56 41 47 46 58
24 21 22 24 26 30 32 31 33 36 37 39 41 43 46 48 53 59 64 66 69 63 55 49 42 40 39 39 40 40 43 45 49 54 54 58 68 69 67 67 64 52 44 43 54
23 21 23 25 28 31 34 32 35 38 40 42 43 46 50 55 61 62 65 68 61 44 38 32 30 29 29 30 32 36 41 42 44 43 49 53 61 68 66 72 71 59 53 50 51
24 22 23 26 28 32 34 33 35 40 43 44 45 50 54 60 63 64 61 50 41 26 23 20 21 23 26 28 30 33 36 38 34 43 43 47 56 59 66 75 79 65 58 60 53
26 24 25 27 28 33 35 35 36 44 45 45 51 53 59 63 67 63 51 28 22 15 13 19 22 25 22 21 22 25 32 37 38 42 43 47 50 48 57 67 82 72 61 58 60
28 26 26 28 29 33 36 37 41 44 44 49 52 55 63 66 64 48 28 16 11 14 20 23 19 15 20 26 27 28 26 24 39 43 46 41 52 45 50 57 79 77 67 65 65
32 28 28 29 30 33 38 38 41 44 45 51 56 61 67 63 51 24 18 13 9 12 18 23 19 22 24 26 29 26 26 34 28 33 46 50 49 49 51 52 67 80 75 67 70
34 31 30 30 31 35 39 41 44 46 50 51 58 67 66 66 37 25 11 11 18 18 22 25 24 25 23 29 34 40 37 35 30 34 46 47 52 49 51 54 53 77 73 71 73
35 32 32 33 33 37 39 41 44 48 49 55 63 66 65 53 42 34 19 14 19 19 23 22 26 27 30 32 23 25 26 28 29 33 47 48 50 47 48 49 54 63 72 77 68
36 34 33 34 34 39 41 42 45 51 51 55 61 61 62 50 39 30 22 17 16 25 31 24 31 24 29 25 27 21 19 26 31 24 46 42 49 51 46 42 51 55 74 74 71
38 36 33 31 36 38 36 38 45 48 51 54 59 60 56 54 42 29 20 17 20 23 28 25 27 29 27 22 23 18 17 24 26 21 42 42 46 45 38 42 45 52 52 70 76
38 35 34 36 39 36 34 40 45 46 50 52 56 56 54 43 41 32 25 15 19 22 22 29 24 20 18 14 16 14 16 16 11 13 42 35 39 34 42 43 39 47 45 49 66
37 35 34 35 37 35 35 41 45 46 49 50 55 56 54 43 37 26 20 18 23 21 16 15 26 20 15 19 19 15 21 18 10 12 33 29 40 37 29 34 33 42 44 42 51
36 36 34 34 35 36 37 40 42 43 48 50 54 56 51 49 35 25 16 19 23 24 24 24 19 22 13 16 19 21 22 24 18 7 10 43 28 28 29 29 27 40 43 40 44
34 34 34 35 36 36 37 40 41 45 49 49 50 56 55 46 33 23 14 16 21 18 24 26 18 22 19 13 16 22 24 33 28 9 16 6 6 24 30 27 24 36 37 40 40
33 33 34 34 34 37 37 38 38 41 46 49 52 56 60 51 28 20 11 14 16 25 19 26 23 20 12 11 17 17 17 32 20 20 4 6 13 31 32 32 32 33 32 38 37
31 31 31 33 31 35 36 35 37 40 44 48 50 53 57 49 30 19 9 10 16 19 25 25 23 19 10 20 15 20 25 31 16 11 19 8 18 33 35 27 24 29 27 36 39
30 30 29 31 32 33 34 36 38 39 43 47 46 50 55 51 30 16 7 9 13 19 25 27 22 19 6 13 10 14 21 35 40 25 6 7 26 31 18 19 30 32 32 34 43
31 31 33 34 35 33 32 37 38 37 40 44 45 47 51 49 29 13 5 9 10 16 22 27 21 15 7 12 10 12 17 29 36 9 1 10 12 32 20 19 16 22 31 42 43
37 36 33 34 35 35 32 32 36 32 37 40 42 44 46 43 29 14 5 8 12 15 19 23 20 17 6 7 17 16 21 26 30 29 19 8 24 30 24 26 21 21 28 40 46
37 34 36 39 34 34 33 34 35 30 32 36 38 40 42 39 25 16 4 6 12 16 16 20 19 8 12 11 12 14 16 19 20 25 29 12 40 37 36 29 31 29 40 47 48
40 38 30 33 33 35 35 32 33 25 31 32 36 35 39 39 23 14 6 6 10 16 14 17 18 11 9 9 4 3 10 12 14 20 31 15 30 34 27 28 37 43 40 42 48
38 39 38 31 32 34 34 31 30 30 24 29 32 33 34 34 24 13 9 9 10 13 17 16 14 14 12 12 8 14 5 16 11 16 19 22 11 33 21 33 33 41 42 39 43
Wind_Direction
359 356 353 346 344 340 335 328 324 323 324 324 320 315 311 309 308 308 306 301 303 301 298 296 292 291 288 280 272 267 268 268 267 264 261 245 236 230 229 211 204 204 225 246 248
356 354 347 343 341 342 341 341 339 334 330 327 323 320 317 314 315 314 308 308 306 304 301 299 297 293 287 279 272 268 270 272 263 257 254 247 234 232 229 221 201 221 222 235 239
347 346 345 346 348 349 346 342 338 332 330 327 324 322 320 317 319 317 313 311 307 302 299 297 293 290 287 280 271 263 269 261 251 247 244 240 233 227 227 223 206 217 231 231 238
345 344 347 350 351 348 341 336 333 332 329 327 326 324 322 323 326 320 317 311 307 304 301 296 289 281 274 269 266 263 261 257 254 245 240 236 231 225 222 223 198 207 219 234 234
345 343 346 348 347 347 343 340 338 336 333 332 330 329 328 327 324 320 315 310 307 304 300 289 280 276 274 271 265 263 258 251 248 244 236 233 231 225 219 215 193 191 215 228 238
344 342 343 342 342 344 344 340 338 338 338 337 334 332 330 327 323 318 313 311 305 295 286 285 283 279 272 266 263 259 256 253 251 245 237 230 228 226 219 207 191 189 206 215 234
346 340 338 339 339 342 342 339 337 338 339 337 335 332 331 326 320 319 317 308 298 301 296 287 283 282 280 277 270 263 257 253 249 247 248 238 230 225 217 207 194 192 194 215 224
347 342 338 338 340 341 341 340 339 338 340 336 334 334 328 325 324 325 313 305 306 303 293 301 296 294 290 286 277 269 264 256 250 249 243 247 238 223 218 207 201 192 195 205 218
348 343 341 340 340 342 340 339 340 342 337 336 336 332 328 328 329 332 320 330 323 319 306 309 307 300 294 292 291 282 265 257 246 246 243 240 241 222 223 213 206 197 195 201 211
349 344 341 340 342 343 340 338 343 336 340 340 334 334 334 338 342 331 335 330 329 324 321 310 297 277 284 284 281 284 283 262 249 240 236 230 236 223 221 217 207 200 198 201 205
349 344 341 340 341 342 340 339 335 338 344 339 338 339 341 347 344 327 343 342 334 328 332 326 306 307 304 300 300 286 285 287 269 258 233 232 233 220 219 219 209 204 203 202 206
347 344 340 339 339 342 338 338 338 343 345 340 342 344 347 348 347 327 337 321 312 329 323 329 320 309 305 302 288 285 280 278 268 271 230 226 228 225 217 217 210 205 203 202 207
345 344 342 340 341 341 340 337 340 347 342 345 348 347 349 351 350 342 316 317 307 327 323 326 328 307 310 282 281 285 290 280 261 270 216 217 221 220 215 212 209 204 201 202 204
345 345 344 343 344 341 341 337 343 343 349 350 348 351 352 356 354 345 325 308 316 322 335 320 316 315 329 345 311 309 287 283 272 281 217 207 216 218 214 208 206 205 199 203 206
347 346 344 343 342 344 335 337 346 341 350 351 351 352 351 356 356 355 335 343 323 325 331 336 334 318 324 316 315 320 295 287 295 267 210 192 212 216 210 214 202 202 206 203 211
346 345 345 343 346 336 335 345 340 344 355 355 354 355 350 357 349 353 338 341 328 333 316 330 326 346 337 333 332 303 297 293 308 250 199 185 211 209 214 221 207 203 206 202 201
346 344 343 346 342 334 341 344 334 352 353 352 353 353 357 353 350 345 333 330 332 347 341 339 326 346 324 351 334 315 340 335 321 289 205 193 219 208 221 229 213 208 208 204 200
344 344 341 342 339 344 341 333 343 350 354 354 354 351 356 351 349 348 344 324 335 336 338 359 325 332 352 358 352 351 332 348 318 3 191 196 222 206 214 224 197 198 210 210 209
343 342 341 336 346 344 340 334 345 350 350 351 354 352 352 356 346 349 340 332 338 343 347 352 345 347 349 24 341 335 7 1 358 332 177 191 134 167 193 212 192 189 208 215 209
339 339 341 337 337 345 335 339 348 349 348 352 355 353 350 355 353 349 352 349 359 358 346 350 8 349 345 356 340 324 333 351 357 344 40 135 178 158 177 192 180 173 191 201 204
333 337 337 339 338 341 339 336 342 346 350 354 355 353 351 357 354 353 2 343 345 1 359 354 13 12 340 345 5 355 343 349 342 315 298 181 167 162 172 192 190 180 197 206 203
328 330 334 336 338 334 339 343 339 341 350 353 353 354 351 355 357 356 6 5 350 6 10 3 1 11 350 12 358 358 345 351 349 21 341 246 180 165 170 196 203 199 194 198 188
320 328 327 329 331 334 339 342 332 336 347 349 353 355 353 353 5 7 17 344 354 350 7 8 357 354 -0 336 8 11 349 356 349 7 235 200 155 150 170 191 204 210 195 188 179
314 318 322 325 329 331 330 331 334 338 346 349 351 355 355 354 1 1 12 23 2 353 6 1 3 15 50 320 24 21 11 357 342 336 5 318 178 162 171 160 145 166 194 178 185
308 314 318 318 322 326 327 328 340 336 342 345 351 353 355 357 354 358 319 2 354 355 351 6 14 339 336 353 340 2 8 2 352 344 20 184 163 172 178 172 162 151 166 180 188
305 306 309 313 319 323 322 326 334 333 333 345 349 350 353 355 356 4 342 325 330 341 349 4 3 357 349 324 307 314 313 306 308 357 350 25 180 177 146 160 172 163 178 181 189
300 302 306 311 314 317 318 321 328 325 333 343 347 348 352 353 353 2 342 329 319 331 334 340 349 5 350 327 236 265 347 31 27 41 3 346 58 181 141 172 178 177 183 184 192